| time (UTC) | temp F | wind direction | speed MPH | gust MPH | rain 1hr in | rain 24hr in | rain mn in | humidity % | barometer mb |
| 20260901000044 | 86 | 82 | 6.0 | 14.0 | 0.00 | 0.00 | 0.00 | 22 | 1007.3 |
| 20260831234517 | 85 | 8 | 7.0 | 14.0 | 0.00 | 0.00 | 0.00 | 23 | 1007.4 |
| 20260831233032 | 85 | 60 | 12.0 | 17.0 | 0.00 | 0.00 | 0.00 | 23 | 1007.7 |
| 20260831231602 | 85 | 69 | 7.0 | 14.0 | 0.00 | 0.00 | 0.00 | 23 | 1008.0 |
| 20260831230053 | 85 | 12 | 10.0 | 15.0 | 0.00 | 0.00 | 0.00 | 24 | 1008.2 |
| 20260831224534 | 84 | 55 | 7.0 | 15.0 | 0.00 | 0.00 | 0.00 | 24 | 1008.5 |
| 20260831223034 | 83 | 58 | 9.0 | 16.0 | 0.00 | 0.00 | 0.00 | 25 | 1008.6 |
| 20260831221512 | 83 | 33 | 8.0 | 17.0 | 0.00 | 0.00 | 0.00 | 25 | 1008.9 |
| 20260831220009 | 83 | 37 | 12.0 | 15.0 | 0.00 | 0.00 | 0.00 | 24 | 1009.2 |
| 20260831214550 | 83 | 92 | 11.0 | 15.0 | 0.00 | 0.00 | 0.00 | 24 | 1009.6 |
| 20260831213045 | 81 | 90 | 7.0 | 16.0 | 0.00 | 0.00 | 0.00 | 25 | 1009.9 |
| 20260831211526 | 82 | 29 | 7.0 | 17.0 | 0.00 | 0.00 | 0.00 | 26 | 1010.0 |
| 20260831210023 | 80 | 87 | 14.0 | 17.0 | 0.00 | 0.00 | 0.00 | 26 | 1010.2 |
| 20260831204505 | 80 | 21 | 8.0 | 13.0 | 0.00 | 0.00 | 0.00 | 27 | 1010.5 |
| 20260831203059 | 79 | 87 | 14.0 | 18.0 | 0.00 | 0.00 | 0.00 | 28 | 1010.8 |
| 20260831201547 | 79 | 96 | 13.0 | 20.0 | 0.00 | 0.00 | 0.00 | 28 | 1011.0 |
| 20260831200042 | 79 | 101 | 14.0 | 20.0 | 0.00 | 0.00 | 0.00 | 29 | 1011.3 |
| 20260831194532 | 78 | 104 | 7.0 | 14.0 | 0.00 | 0.00 | 0.00 | 30 | 1011.5 |
| 20260831193012 | 77 | 95 | 8.0 | 17.0 | 0.00 | 0.00 | 0.00 | 31 | 1011.7 |
| 20260831191553 | 77 | 1 | 8.0 | 16.0 | 0.00 | 0.00 | 0.00 | 31 | 1012.1 |
| 20260831190058 | 76 | 51 | 8.0 | 17.0 | 0.00 | 0.00 | 0.00 | 32 | 1012.4 |
| 20260831184542 | 76 | 90 | 7.0 | 17.0 | 0.00 | 0.00 | 0.00 | 33 | 1012.6 |
| 20260831183033 | 75 | 89 | 11.0 | 15.0 | 0.00 | 0.00 | 0.00 | 32 | 1012.9 |
| 20260831181515 | 74 | 52 | 11.0 | 16.0 | 0.00 | 0.00 | 0.00 | 33 | 1013.0 |
| 20260831180005 | 73 | 45 | 11.0 | 16.0 | 0.00 | 0.00 | 0.00 | 36 | 1013.2 |
| 20260831174602 | 73 | 86 | 11.0 | 17.0 | 0.00 | 0.00 | 0.00 | 37 | 1013.2 |
| 20260831173059 | 73 | 53 | 11.0 | 14.0 | 0.00 | 0.00 | 0.00 | 40 | 1013.4 |
| 20260831171545 | 71 | 39 | 9.0 | 15.0 | 0.00 | 0.00 | 0.00 | 41 | 1013.7 |
| 20260831170042 | 70 | 69 | 12.0 | 14.0 | 0.00 | 0.00 | 0.00 | 44 | 1013.8 |
| 20260831164539 | 68 | 32 | 8.0 | 11.0 | 0.00 | 0.00 | 0.00 | 46 | 1014.0 |
| 20260831163037 | 65 | 85 | 6.0 | 9.0 | 0.00 | 0.00 | 0.00 | 50 | 1014.1 |
| 20260831161529 | 64 | 91 | 5.0 | 8.0 | 0.00 | 0.00 | 0.00 | 51 | 1014.3 |
| 20260831160030 | 63 | 98 | 3.0 | 5.0 | 0.00 | 0.00 | 0.00 | 53 | 1014.5 |
| 20260831154513 | 61 | 89 | 3.0 | 6.0 | 0.00 | 0.00 | 0.00 | 55 | 1014.6 |
| 20260831153003 | 60 | 93 | 3.0 | 6.0 | 0.00 | 0.00 | 0.00 | 55 | 1014.7 |
| 20260831151556 | 61 | 112 | 0.0 | 3.0 | 0.00 | 0.00 | 0.00 | 58 | 1014.7 |
| 20260831150048 | 59 | 190 | 1.0 | 2.0 | 0.00 | 0.00 | 0.00 | 61 | 1014.6 |
| 20260831144532 | 59 | 222 | 0.0 | 1.0 | 0.00 | 0.00 | 0.00 | 61 | 1014.4 |
| 20260831143033 | 59 | 233 | 2.0 | 3.0 | 0.00 | 0.00 | 0.00 | 62 | 1014.4 |
| 20260831141502 | 58 | 345 | 0.0 | 1.0 | 0.00 | 0.00 | 0.00 | 60 | 1014.1 |
| 20260831140100 | 57 | 345 | 0.0 | 3.0 | 0.00 | 0.00 | 0.00 | 61 | 1014.2 |
| 20260831134540 | 55 | 354 | 2.0 | 4.0 | 0.00 | 0.00 | 0.00 | 65 | 1014.2 |
| 20260831133035 | 55 | 227 | 2.0 | 3.0 | 0.00 | 0.00 | 0.00 | 61 | 1014.2 |
| 20260831131517 | 54 | 15 | 0.0 | 1.0 | 0.00 | 0.00 | 0.00 | 63 | 1014.2 |
| 20260831130020 | 54 | 14 | 2.0 | 4.0 | 0.00 | 0.00 | 0.00 | 64 | 1014.1 |
| 20260831124558 | 56 | 336 | 0.0 | 9.0 | 0.00 | 0.00 | 0.00 | 57 | 1014.0 |
| 20260831123057 | 57 | 353 | 8.0 | 9.0 | 0.00 | 0.00 | 0.00 | 59 | 1013.9 |
| 20260831121539 | 59 | 64 | 1.0 | 9.0 | 0.00 | 0.00 | 0.00 | 56 | 1014.0 |
| 20260831120039 | 58 | 4 | 8.0 | 12.0 | 0.00 | 0.00 | 0.00 | 59 | 1013.7 |
| 20260831114518 | 56 | 354 | 9.0 | 10.0 | 0.00 | 0.00 | 0.00 | 64 | 1013.6 |
| 20260831113015 | 57 | 345 | 3.0 | 9.0 | 0.00 | 0.00 | 0.00 | 60 | 1013.8 |
| 20260831111611 | 56 | 18 | 3.0 | 4.0 | 0.00 | 0.00 | 0.00 | 59 | 1013.8 |
| 20260831110134 | 56 | 16 | 3.0 | 4.0 | 0.00 | 0.00 | 0.00 | 56 | 1013.8 |
| 20260831104546 | 56 | 152 | 1.0 | 2.0 | 0.00 | 0.00 | 0.00 | 60 | 1013.8 |
| 20260831103049 | 54 | 150 | 1.0 | 2.0 | 0.00 | 0.00 | 0.00 | 62 | 1013.8 |
| 20260831101546 | 54 | 150 | 0.0 | 0.0 | 0.00 | 0.00 | 0.00 | 62 | 1013.9 |
| 20260831100046 | 54 | 151 | 0.0 | 0.0 | 0.00 | 0.00 | 0.00 | 61 | 1013.7 |
| 20260831094542 | 54 | 151 | 0.0 | 1.0 | 0.00 | 0.00 | 0.00 | 62 | 1014.0 |
| 20260831093041 | 55 | 151 | 0.0 | 1.0 | 0.00 | 0.00 | 0.00 | 62 | 1014.2 |
| 20260831091549 | 56 | 150 | 0.0 | 2.0 | 0.00 | 0.00 | 0.00 | 56 | 1014.2 |
| 20260831090041 | 56 | 151 | 0.0 | 2.0 | 0.00 | 0.00 | 0.00 | 58 | 1014.2 |
| 20260831084538 | 57 | 151 | 1.0 | 2.0 | 0.00 | 0.00 | 0.00 | 55 | 1014.3 |
| 20260831083027 | 56 | 283 | 1.0 | 2.0 | 0.00 | 0.00 | 0.00 | 57 | 1014.2 |
| 20260831081529 | 56 | 85 | 0.0 | 1.0 | 0.00 | 0.00 | 0.00 | 57 | 1014.1 |
| 20260831080028 | 57 | 85 | 1.0 | 1.0 | 0.00 | 0.00 | 0.00 | 59 | 1014.2 |
| 20260831074537 | 58 | 85 | 0.0 | 1.0 | 0.00 | 0.00 | 0.00 | 58 | 1014.2 |
| 20260831073057 | 59 | 85 | 0.0 | 0.0 | 0.00 | 0.00 | 0.00 | 56 | 1014.2 |
| 20260831071526 | 60 | 79 | 0.0 | 0.0 | 0.00 | 0.00 | 0.00 | 48 | 1014.2 |
| 20260831070031 | 63 | 89 | 3.0 | 4.0 | 0.00 | 0.00 | 0.00 | 44 | 1014.2 |
| 20260831064534 | 63 | 313 | 0.0 | 3.0 | 0.00 | 0.00 | 0.00 | 45 | 1014.2 |
| 20260831063014 | 67 | 325 | 2.0 | 3.0 | 0.00 | 0.00 | 0.00 | 42 | 1014.2 |
| 20260831061507 | 68 | 326 | 2.0 | 3.0 | 0.00 | 0.00 | 0.00 | 41 | 1014.1 |
| 20260831060101 | 67 | 320 | 3.0 | 3.0 | 0.00 | 0.00 | 0.00 | 42 | 1014.0 |
| 20260831054551 | 68 | 311 | 0.0 | 3.0 | 0.00 | 0.00 | 0.00 | 41 | 1014.2 |
| 20260831053034 | 68 | 311 | 2.0 | 3.0 | 0.00 | 0.00 | 0.00 | 41 | 1014.3 |
| 20260831051531 | 68 | 307 | 2.0 | 3.0 | 0.00 | 0.00 | 0.00 | 41 | 1014.3 |
| 20260831050033 | 68 | 321 | 2.0 | 4.0 | 0.00 | 0.00 | 0.00 | 41 | 1014.3 |
| 20260831044513 | 68 | 324 | 0.0 | 0.0 | 0.00 | 0.00 | 0.00 | 41 | 1014.3 |
| 20260831043001 | 70 | 323 | 1.0 | 4.0 | 0.00 | 0.00 | 0.00 | 40 | 1014.2 |
| 20260831041503 | 70 | 335 | 2.0 | 3.0 | 0.00 | 0.00 | 0.00 | 40 | 1014.2 |
| 20260831040100 | 69 | 335 | 3.0 | 5.0 | 0.00 | 0.00 | 0.00 | 40 | 1014.2 |
| 20260831034600 | 70 | 342 | 4.0 | 5.0 | 0.00 | 0.00 | 0.00 | 40 | 1014.2 |
| 20260831033059 | 70 | 354 | 3.0 | 3.0 | 0.00 | 0.00 | 0.00 | 40 | 1014.1 |
| 20260831031558 | 70 | 346 | 2.0 | 4.0 | 0.00 | 0.00 | 0.00 | 40 | 1014.0 |
| 20260831024558 | 71 | 45 | 2.0 | 3.0 | 0.00 | 0.00 | 0.00 | 36 | 1013.8 |
| 20260831023039 | 72 | 58 | 4.0 | 6.0 | 0.00 | 0.00 | 0.00 | 35 | 1013.7 |
| 20260831021539 | 73 | 60 | 4.0 | 5.0 | 0.00 | 0.00 | 0.00 | 34 | 1013.6 |
| 20260831020022 | 74 | 90 | 5.0 | 9.0 | 0.00 | 0.00 | 0.00 | 33 | 1013.5 |
| 20260831014522 | 75 | 93 | 9.0 | 11.0 | 0.00 | 0.00 | 0.00 | 31 | 1013.5 |
| 20260831013008 | 78 | 113 | 4.0 | 8.0 | 0.00 | 0.00 | 0.00 | 25 | 1013.5 |
| 20260831011506 | 78 | 198 | 3.0 | 8.0 | 0.00 | 0.00 | 0.00 | 24 | 1013.4 |
| 20260831010007 | 78 | 225 | 5.0 | 11.0 | 0.00 | 0.00 | 0.00 | 22 | 1013.4 |
| 20260831004509 | 79 | 195 | 8.0 | 13.0 | 0.00 | 0.00 | 0.00 | 23 | 1013.5 |
| 20260831003007 | 79 | 207 | 9.0 | 14.0 | 0.00 | 0.00 | 0.00 | 22 | 1013.5 |
| 20260831001508 | 79 | 248 | 11.0 | 18.0 | 0.00 | 0.00 | 0.00 | 21 | 1013.6 |